Stündliche Wetter Dzietrzkowice

Heute, 14 Juni, Montag

Zeit Temperatur Niederschläge Wind Luftdruck Luftfeuchtigkeit
00:00 +9°C° 0 mm 3 m/S 749 mmHg 91%
01:00 +8°C° 0 mm 3 m/S 750 mmHg 93%
02:00 +8°C° 0 mm 3 m/S 749 mmHg 93%
03:00 +8°C° 0 mm 3 m/S 749 mmHg 93%
04:00 +7°C° 0 mm 2 m/S 749 mmHg 94%
05:00 +9°C° 0 mm 3 m/S 749 mmHg 87%
06:00 +11°C° 0 mm 3 m/S 749 mmHg 81%
07:00 +12°C° 0 mm 3 m/S 750 mmHg 74%
08:00 +14°C° 0 mm 3 m/S 750 mmHg 69%
09:00 +16°C° 0 mm 3 m/S 750 mmHg 64%
10:00 +18°C° 0 mm 3 m/S 749 mmHg 58%
11:00 +19°C° 0 mm 3 m/S 749 mmHg 55%
12:00 +20°C° 0 mm 2 m/S 749 mmHg 53%
13:00 +20°C° 0 mm 2 m/S 749 mmHg 50%
14:00 +21°C° 0 mm 2 m/S 748 mmHg 49%
15:00 +22°C° 0 mm 1 m/S 748 mmHg 49%
16:00 +22°C° 0 mm 1 m/S 748 mmHg 48%
17:00 +21°C° 0 mm 1 m/S 747 mmHg 54%
18:00 +20°C° 0 mm 1 m/S 747 mmHg 60%
19:00 +19°C° 0 mm 1 m/S 747 mmHg 66%
20:00 +18°C° 0 mm 1 m/S 747 mmHg 68%
21:00 +16°C° 0 mm 1 m/S 747 mmHg 70%
22:00 +14°C° 0 mm 1 m/S 747 mmHg 73%
23:00 +14°C° 0 mm 2 m/S 747 mmHg 74%

Morgen, 15 Juni, Dienstag

Zeit Temperatur Niederschläge Wind Luftdruck Luftfeuchtigkeit
00:00 +13°C° 0 mm 2 m/S 747 mmHg 76%
01:00 +13°C° 0 mm 2 m/S 746 mmHg 78%
02:00 +13°C° 0 mm 2 m/S 746 mmHg 79%
03:00 +12°C° 0 mm 2 m/S 746 mmHg 80%
04:00 +12°C° 0 mm 2 m/S 746 mmHg 81%
05:00 +14°C° 0 mm 2 m/S 747 mmHg 77%
06:00 +15°C° 0 mm 2 m/S 747 mmHg 73%
07:00 +17°C° 0 mm 2 m/S 747 mmHg 68%
08:00 +18°C° 0 mm 2 m/S 747 mmHg 63%
09:00 +20°C° 0 mm 2 m/S 747 mmHg 59%
10:00 +22°C° 0 mm 1 m/S 746 mmHg 54%
11:00 +23°C° 0 mm 1 m/S 746 mmHg 53%
12:00 +24°C° 0 mm 1 m/S 746 mmHg 52%
13:00 +24°C° 0 mm 1 m/S 746 mmHg 51%
14:00 +24°C° 0 mm 1 m/S 746 mmHg 52%
15:00 +25°C° 0 mm 2 m/S 746 mmHg 53%
16:00 +25°C° 0 mm 2 m/S 745 mmHg 54%
17:00 +24°C° 0 mm 2 m/S 745 mmHg 61%
18:00 +21°C° 0 mm 2 m/S 745 mmHg 67%
19:00 +20°C° 0 mm 2 m/S 745 mmHg 74%
20:00 +19°C° 0 mm 2 m/S 746 mmHg 78%
21:00 +19°C° 0 mm 2 m/S 746 mmHg 81%
22:00 +18°C° 0 mm 2 m/S 746 mmHg 85%
23:00 +17°C° 0 mm 2 m/S 746 mmHg 88%

übermorgen, 16 Juni, Mittwoch

Zeit Temperatur Niederschläge Wind Luftdruck Luftfeuchtigkeit
00:00 +16°C° 0 mm 2 m/S 746 mmHg 90%
01:00 +16°C° 0 mm 2 m/S 746 mmHg 93%
02:00 +15°C° 0 mm 2 m/S 746 mmHg 94%
03:00 +15°C° 0 mm 2 m/S 746 mmHg 95%
04:00 +14°C° 0 mm 2 m/S 746 mmHg 96%
05:00 +16°C° 0 mm 2 m/S 747 mmHg 92%
06:00 +17°C° 0 mm 2 m/S 747 mmHg 88%
07:00 +18°C° 0 mm 2 m/S 747 mmHg 84%
08:00 +19°C° 0.1 mm 3 m/S 747 mmHg 81%
09:00 +20°C° 0.1 mm 3 m/S 747 mmHg 77%
10:00 +20°C° 0.1 mm 3 m/S 747 mmHg 74%
11:00 +21°C° 0 mm 3 m/S 747 mmHg 72%
12:00 +22°C° 0 mm 3 m/S 747 mmHg 69%
13:00 +22°C° 0 mm 3 m/S 747 mmHg 67%
14:00 +24°C° 0 mm 3 m/S 747 mmHg 65%
15:00 +24°C° 0 mm 3 m/S 747 mmHg 63%
16:00 +24°C° 0 mm 3 m/S 747 mmHg 61%
17:00 +22°C° 0 mm 3 m/S 747 mmHg 66%
18:00 +21°C° 0 mm 3 m/S 747 mmHg 71%
19:00 +20°C° 0 mm 3 m/S 747 mmHg 76%
20:00 +19°C° 0 mm 3 m/S 747 mmHg 78%
21:00 +18°C° 0 mm 3 m/S 747 mmHg 80%
22:00 +17°C° 0 mm 3 m/S 747 mmHg 82%
23:00 +16°C° 0 mm 3 m/S 747 mmHg 83%

17 Juni, Donnerstag

Zeit Temperatur Niederschläge Wind Luftdruck Luftfeuchtigkeit
00:00 +16°C° 0 mm 3 m/S 747 mmHg 84%
01:00 +14°C° 0 mm 3 m/S 747 mmHg 85%
02:00 +14°C° 0 mm 3 m/S 747 mmHg 86%
03:00 +14°C° 0 mm 3 m/S 747 mmHg 87%
04:00 +13°C° 0 mm 3 m/S 747 mmHg 88%
05:00 +16°C° 0 mm 3 m/S 747 mmHg 82%
06:00 +17°C° 0 mm 4 m/S 747 mmHg 75%
07:00 +19°C° 0 mm 4 m/S 747 mmHg 68%
08:00 +20°C° 0 mm 4 m/S 747 mmHg 64%
09:00 +22°C° 0 mm 4 m/S 747 mmHg 59%
10:00 +23°C° 0 mm 4 m/S 747 mmHg 55%
11:00 +25°C° 0 mm 4 m/S 747 mmHg 52%
12:00 +26°C° 0 mm 4 m/S 747 mmHg 48%
13:00 +26°C° 0 mm 4 m/S 747 mmHg 45%
14:00 +26°C° 0 mm 4 m/S 747 mmHg 46%
15:00 +26°C° 0 mm 5 m/S 746 mmHg 46%
16:00 +26°C° 0 mm 5 m/S 746 mmHg 47%
17:00 +25°C° 0 mm 4 m/S 746 mmHg 54%
18:00 +22°C° 0 mm 4 m/S 746 mmHg 61%
19:00 +21°C° 0 mm 4 m/S 746 mmHg 68%
20:00 +20°C° 0 mm 4 m/S 746 mmHg 71%
21:00 +18°C° 0 mm 3 m/S 746 mmHg 74%
22:00 +17°C° 0 mm 3 m/S 746 mmHg 77%
23:00 +17°C° 0 mm 4 m/S 746 mmHg 80%

18 Juni, Freitag

Zeit Temperatur Niederschläge Wind Luftdruck Luftfeuchtigkeit
00:00 +15°C° 0 mm 4 m/S 746 mmHg 83%
01:00 +15°C° 0 mm 4 m/S 746 mmHg 87%
02:00 +15°C° 0 mm 4 m/S 746 mmHg 89%
03:00 +16°C° 0 mm 3 m/S 746 mmHg 91%
04:00 +16°C° 0 mm 3 m/S 745 mmHg 93%
05:00 +18°C° 0 mm 4 m/S 746 mmHg 87%
06:00 +20°C° 0 mm 4 m/S 746 mmHg 80%
07:00 +22°C° 0 mm 5 m/S 746 mmHg 74%
08:00 +23°C° 0 mm 5 m/S 746 mmHg 68%
09:00 +26°C° 0 mm 5 m/S 746 mmHg 63%
10:00 +27°C° 0 mm 5 m/S 746 mmHg 58%
11:00 +28°C° 0 mm 5 m/S 746 mmHg 56%
12:00 +29°C° 0 mm 5 m/S 745 mmHg 54%
13:00 +30°C° 0 mm 5 m/S 745 mmHg 51%
14:00 +30°C° 0 mm 5 m/S 745 mmHg 52%
15:00 +30°C° 0 mm 5 m/S 745 mmHg 52%
16:00 +30°C° 0 mm 5 m/S 745 mmHg 52%
17:00 +28°C° 0 mm 4 m/S 745 mmHg 59%
18:00 +27°C° 0 mm 4 m/S 745 mmHg 65%
19:00 +26°C° 0 mm 3 m/S 745 mmHg 71%
20:00 +24°C° 0 mm 3 m/S 745 mmHg 76%
21:00 +22°C° 0 mm 3 m/S 746 mmHg 81%
22:00 +21°C° 0 mm 3 m/S 746 mmHg 86%
23:00 +20°C° 0 mm 3 m/S 746 mmHg 89%

19 Juni, Samstag

Zeit Temperatur Niederschläge Wind Luftdruck Luftfeuchtigkeit
00:00 +20°C° 0 mm 3 m/S 746 mmHg 92%
01:00 +19°C° 0 mm 3 m/S 746 mmHg 94%
02:00 +19°C° 0 mm 3 m/S 746 mmHg 95%
03:00 +19°C° 0 mm 3 m/S 746 mmHg 95%
04:00 +18°C° 0 mm 3 m/S 746 mmHg 95%
05:00 +20°C° 0 mm 4 m/S 746 mmHg 89%
06:00 +21°C° 0 mm 4 m/S 746 mmHg 82%
07:00 +23°C° 0 mm 5 m/S 746 mmHg 76%
08:00 +25°C° 0 mm 5 m/S 746 mmHg 70%
09:00 +26°C° 0 mm 5 m/S 747 mmHg 64%
10:00 +27°C° 0 mm 5 m/S 747 mmHg 58%
11:00 +28°C° 0 mm 5 m/S 746 mmHg 56%
12:00 +29°C° 0 mm 5 m/S 746 mmHg 54%
13:00 +29°C° 0 mm 5 m/S 746 mmHg 52%
14:00 +29°C° 0 mm 5 m/S 746 mmHg 52%
15:00 +29°C° 0 mm 5 m/S 746 mmHg 53%
16:00 +29°C° 0 mm 5 m/S 745 mmHg 53%
17:00 +27°C° 0 mm 5 m/S 746 mmHg 59%
18:00 +26°C° 0 mm 4 m/S 746 mmHg 65%
19:00 +25°C° 0 mm 3 m/S 746 mmHg 71%
20:00 +23°C° 0 mm 4 m/S 746 mmHg 75%
21:00 +22°C° 0 mm 5 m/S 746 mmHg 79%
22:00 +20°C° 0 mm 5 m/S 746 mmHg 84%
23:00 +19°C° 0 mm 5 m/S 746 mmHg 87%
Mehr zeigen

Wir brauchen deine Erlaubnis

Meteoprog und unser Service Anbieter werden persönliche Daten aufbewahren, so wie Cookies, Geräte Bezeichnung oder ähnliche Technologien von deinem Gerät und Prozess, so wie Persönliche Daten Inhalte und Werbungen, genauso wie social Media und den Verkehr zu analysieren.

  • Aufbewahrung und/oder Zugang zu deiner Geräte Informationen.

    Cookies, Geräte Bezeichnung oder andere Informationen, können aufbewahrt oder Zugang zu deinem Gerät erhalten, für den Grund, der oben angegeben wird.

  • Personalisierte Werbung und Inhalte, Messungen, Einblick in das Publikum und Produkt Entwicklung.

    Werbungen und Inhalte können personalisiert werden, basierend auf ein Profil. Mehr Daten können besser personalisierte Werbungen und Inhalte hinzufügen. Werbung und Inhalte können gezeigt und gemessen werden. Einblicke über das Publikum, welche die Werbung gesehen haben und den Inhalt, können abgeleitet werden. So wie Daten können genutzt werden, um es zu verbessern oder die Benutzer Erfahrung zu verbessern das System und die Software.

Wenn du “Ich stimme zu” klickst, erlaubst du uns, die Cookies zu benutzen die Geräte Bezeichnung, den Web oder ähnliche Technologien zu benutzen. Deine Settings, können in deinem Gerät bei deinem Browser geändert werden.

Für den bestimmten Zweck, berechtigten Interessen beruhen darauf, mehr als auf den Inhalt. Du kannst mehr darüber in unseren Privaten und Cookie Politik lesen.